Location: ?
(35.4554°N, 139.3092°E)
Time: 21:15:54
(UTC+00:00)

Resurs 1-4 Rocket - Pass Details

Date: 21 April 2021
Orbit: 799 x 815 km, 98.6° (Epoch: 10 May)

Event Time Altitude Azimuth Distance (km) Brightness Sun altitude
Rises 16:06:15 0° 14° (NNE) 3,315 6.2 -38.4°
Reaches altitude 10° 16:08:35 10° 16° (NNE) 2,380 5.2 -38.2°
Enters shadow 16:10:51 26° 20° (NNE) 1,523 4.0 -38.0°
